Location: Brantley
(31.5822°N, 86.2569°W)
Time: 17:13:24
(UTC+00:00)

Injun/Solrad 3 - Pass Details

Date: 17 February 2026
Orbit: 871 x 985 km, 66.8° (Epoch: 11 March)

Event Time Altitude Azimuth Distance (km) Brightness Sun altitude
Rises 02:39:03 0° 334° (NNW) 3,594 11.4 -40.1°
Reaches altitude 10° 02:41:33 10° 335° (NNW) 2,664 10.6 -40.7°
Enters shadow 02:42:41 16° 335° (NNW) 2,251 10.2 -40.9°
Maximum altitude 02:47:48 89° 250° (WSW) 966 - -42.0°
Drops below altitude 10° 02:54:10 10° 157° (SSE) 2,714 - -43.3°
Sets 02:56:45 0° 157° (SSE) 3,666 - -43.8°
